Simultaneous Nadir Overpasses (SNOs) Predictions

Prediction of SNOs between NOAA-19 and METOP-C Satellite Orbit:

Table of predicted SNOs for the next 14.0 days since TLE Epoch: 3/15/2025
Index Date (NOAA-19) Time (NOAA-19) Lat,Lon (NOAA-19) SZA (NOAA-19 ) Date (METOP-C) Time (METOP-C) Lat,Lon (METOP-C) SZA (METOP-C ) Distance(km) Time Diff (sec)
1 03/18/2025 02:36:56 79.12,-128.94 90.55 03/18/2025 02:37:54 79.13,-129.04 90.58 2.30 58
2 03/18/2025 03:27:50 -79.06, 38.76 89.39 03/18/2025 03:28:33 -79.07, 38.71 89.36 1.27 43
3 03/18/2025 04:18:48 78.96,-153.21 90.75 03/18/2025 04:19:11 78.96,-153.23 90.77 0.47 23
4 03/18/2025 05:09:41 -78.87, 14.72 89.14 03/18/2025 05:09:49 -78.86, 14.74 89.13 0.53 8
5 03/18/2025 06:00:39 78.76,-177.27 91.00 03/18/2025 06:00:27 78.75,-177.22 91.00 1.41 12
6 03/18/2025 06:51:32 -78.67, -9.36 88.90 03/18/2025 06:51:05 -78.66, -9.27 88.90 2.33 27
7 03/18/2025 07:42:26 78.41, 159.55 91.43 03/18/2025 07:41:40 78.42, 159.42 91.37 3.19 46



Historial Predications of SNOs between NOAA-19 and METOP-C
